Regional Weather Roundup
Issued by NWS

Home | Current Version | Previous Version | Text Only | Print | Product List | Glossary Off
Versions: 1 2 3 4 5 6 7 8 9 10 11 12 13 14 15 16 17 18 19 20 21 22 23 24 25 26 27 28 29 30 31 32 33 34 35 36 37 38 39 40 41 42 43 44 45 46 47 48 49 50

000
ASUS43 KFSD 201502
RWRSD

WEATHER ROUNDUP FOR SOUTH DAKOTA
NATIONAL WEATHER SERVICE SIOUX FALLS SD
900 AM CST SAT DEC 20 2014

NOTE: "FAIR" INDICATES FEW OR NO CLOUDS BELOW 12,000 FEET WITH NO
SIGNIFICANT WEATHER AND/OR OBSTRUCTIONS TO VISIBILITY.


SDZ001>005-009-010-012>017-201600-
NORTHWEST AND NORTH CENTRAL SOUTH DAKOTA

CITY           SKY/WX    TMP DP  RH WIND       PRES   REMARKS
BUFFALO          N/A     36  26  67 W10       29.80R
FAITH            N/A     29  24  82 S9        29.88F WCI  20
MOBRIDGE       MOCLDY    23  20  88 SE10      29.89F WCI  12
$$

SDZ012>016-024>037-041>051-057-063-072>074-201600-
SOUTHWEST AND SOUTH CENTRAL SOUTH DAKOTA

CITY           SKY/WX    TMP DP  RH WIND       PRES   REMARKS
RAPID CTY ARPT CLOUDY    36  23  59 NW7       29.91R
PIERRE         CLOUDY    21  17  84 SE10      29.93F FOG     WCI  10
CUSTER         CLOUDY    34  20  56 CALM      29.90F
ELLSWORTH AFB  CLOUDY    33  25  70 W5        29.90S WCI  29
PHILIP         MOCLDY    19  16  88 CALM      29.93F
PINE RIDGE     CLOUDY    30  21  69 W7        29.93S WCI  23
WINNER         FAIR      31  18  58 S7        29.95F WCI  24
$$

SDZ004>011-016>023-039-040-201600-
NORTHEAST SOUTH DAKOTA

CITY           SKY/WX    TMP DP  RH WIND       PRES   REMARKS
ABERDEEN       FOG       26  25  96 S9        30.02R VSB 1/4 WCI  17
WATERTOWN      CLOUDY    28  26  92 S15       30.01S FOG     WCI  16
SISSETON         N/A     29  27  92 SW10      30.02S WCI  20
$$

SDZ017-020-022-023-036>040-048>070-201600-
SOUTHEAST SOUTH DAKOTA

CITY           SKY/WX    TMP DP  RH WIND       PRES   REMARKS
SIOUX FALLS    CLOUDY    32  29  88 S13       30.06S FOG     WCI  22
HURON          FOG       25  24  96 S9        30.03S VSB 1/2 WCI  15
MITCHELL       FOG       27  27 100 S10       30.05S VSB 1/4 WCI  17
YANKTON        CLOUDY    34  28  80 SE9       30.07S WCI  26
$$

ABBREVIATIONS USED IN REMARKS
   TC - TEMPERATURE IN CELSIUS
  WCI - WIND CHILL INDEX
   HX - HEAT INDEX
  VSB - VISIBILITY




USA.gov is the U.S. government's official web portal to all federal, state and local government web resources and services.